[[{"header":{"parameterUnit":"m.s-1","parameterCategory":2,"la1":30.2991,"la2":30.254,"lo1":-89.0895,"lo2":-89.0444,"dy":0.0017,"dx":0.0017,"nx":28,"ny":28,"refTime":"2025-12-28T09:00:00:Z","depth":"0","parameterNumber":2,"parameterNumberName":"U-component_of_CURRENTS"},"data":[0,0,0,0,0,0,0,0,0,0,0,0,0,0,0,0,0,0,0,0,0,0,0,0,0,0,0,0,0,0,0,0,0,0,0,0,0,0,0,0,0,0,0,0,0,0,0,0,0,0,0,0,0,0,0,0,0,0,0.1975,0.1976,0,0.2003,0.2003,0.2003,0.2,0.2,0.2,0.2,0.1975,0.1974,0.1974,0,0,0,0,0,0,0,0,0,0,0,0,0,0.1918,0.1918,0.1975,0.1976,0.1976,0.2003,0.2003,0.2003,0.2,0.2,0.2,0.2,0.1975,0.1974,0.1974,0,0,0,0,0,0,0,0,0,0,0,0,0,0.1941,0.1919,0.1975,0.198,0.1981,0.2003,0.2003,0.2004,0.2001,0.2,0.2,0.2,0.1975,0.1974,0.1974,0.1976,0,0,0.1972,0.1971,0,0,0,0,0,0,0,0,0.194,0.1943,0.1979,0.198,0.1981,0.2,0.1974,0.1992,0.2001,0.199,0.2,0.1999,0.198,0.1979,0.1982,0.1975,0.1974,0.1971,0.1971,0.1971,0.1971,0,0,0,0,0,0,0,0.1938,0.1942,0.1984,0.1979,0.1981,0.198,0.1983,0.1977,0.1984,0.1991,0.1992,0.1999,0.198,0.1983,0.1982,0.1973,0.1971,0.1971,0.197,0.197,0.1991,0.1992,0,0,0,0,0,0,0.1941,0.1941,0.1983,0.1985,0.1962,0.1982,0.1985,0.1992,0.1985,0.1985,0.1999,0.1999,0.1984,0.1982,0.1981,0.2006,0.1971,0.197,0.197,0.199,0.1991,0.1992,0,0,0,0,0,0,0.1939,0.1944,0.1982,0.1965,0.197,0.1983,0.1992,0.1993,0.1999,0.1992,0.199,0.2004,0.1984,0.1982,0.1987,0.2004,0.197,0.1969,0.1989,0.199,0.1992,0.2041,0,0,0,0,0,0,0.1937,0.1943,0.1948,0.1965,0.1971,0.2,0.1992,0.1994,0.2005,0.2004,0.1996,0.1993,0.1984,0.1989,0.1987,0.2002,0.1969,0.1988,0.199,0.1991,0.2038,0.2044,0.2049,0,0,0,0,0,0.1935,0.1941,0.1948,0.1954,0.1978,0.2,0.2003,0.201,0.2005,0.2012,0.2011,0.1993,0.1999,0.1989,0.1986,0.2002,0.1987,0.1989,0.1991,0.2036,0.2043,0.2049,0,0,0,0,0,0,0.1911,0.1942,0.195,0.1963,0.1984,0.2001,0.2008,0.2013,0.2018,0.2016,0.2005,0.2003,0.2015,0.2002,0.1992,0.2014,0.199,0.1992,0.2025,0.2032,0.2037,0.2042,0.1968,0,0,0,0,0,0.1911,0.1926,0.1955,0.1964,0.1978,0.1994,0.2003,0.2011,0.2019,0.2021,0.2018,0.2016,0.2023,0.2022,0.2022,0.2031,0.2038,0.204,0.2046,0.205,0.2054,0.2083,0.2092,0.2,0.2,0.2,0,0,0.1902,0.1923,0.1929,0.1961,0.1977,0.2002,0.1998,0.2016,0.2035,0.2017,0.2035,0.2034,0.203,0.2046,0.205,0.2037,0.2084,0.2053,0.2057,0.2058,0.2086,0.2095,0.2103,0.2001,0.2001,0.2001,0,0,0.1899,0.1914,0.1932,0.1955,0.1988,0.2003,0.2011,0.2035,0.2044,0.2063,0.2061,0.2074,0.2073,0.2083,0.2085,0.212,0.2113,0.2117,0.2146,0.2175,0.2182,0.2189,0.2226,0.2235,0.2117,0.2118,0.2118,0,0.1887,0.1918,0.1938,0.1967,0.1989,0.2007,0.2034,0.2049,0.207,0.2085,0.2072,0.2101,0.2093,0.2127,0.2139,0.2132,0.2149,0.2121,0.2182,0.2189,0.2195,0.2231,0.2241,0.212,0.212,0.212,0.2119,0,0.1908,0.1933,0.1946,0.1992,0.2015,0.204,0.2072,0.2093,0.2103,0.212,0.2152,0.2153,0.2171,0.2172,0.2164,0.2208,0.2207,0.2188,0.2166,0.2208,0.2242,0.2252,0.2124,0.2123,0.2122,0.2122,0,0,0.188,0.1947,0.1953,0.1982,0.2033,0.2054,0.2093,0.2136,0.2166,0.2181,0.222,0.2233,0.2237,0.224,0.2239,0.2258,0.2319,0.2242,0.2242,0.228,0.2394,0.2456,0.2472,0.2311,0.2312,0.2313,0.2406,0,0.1892,0.1948,0.1979,0.2029,0.2063,0.2098,0.2133,0.2172,0.22,0.2241,0.2255,0.2286,0.2263,0.2278,0.2297,0.2314,0.2344,0.2296,0.2347,0.2348,0.2399,0.2485,0.2547,0.264,0.2416,0.2417,0.2418,0,0.191,0.1947,0.1997,0.2062,0.2079,0.2107,0.2174,0.2209,0.2269,0.229,0.2327,0.2343,0.2387,0.2353,0.2413,0.2385,0.2396,0.2403,0.2406,0.2451,0.2428,0.2559,0.2666,0.2707,0.2433,0.2432,0.2431,0,0.1893,0.1961,0.2001,0.2024,0.2096,0.2122,0.2159,0.2221,0.2262,0.2327,0.2366,0.2411,0.2448,0.2466,0.2493,0.2457,0.2559,0.2509,0.2578,0.2582,0.264,0.2647,0.2793,0.2555,0.2554,0.2554,0.2554,0,0.1902,0.1932,0.1996,0.2018,0.2066,0.2116,0.2169,0.2216,0.2288,0.2352,0.239,0.2459,0.2477,0.2538,0.2535,0.2613,0.26,0.2613,0.2622,0.2661,0.2668,0.2707,0.2702,0.2558,0.2557,0.2556,0.2556,0,0.188,0.1922,0.197,0.2039,0.2061,0.2094,0.2172,0.2215,0.2287,0.2376,0.2405,0.251,0.2609,0.2638,0.2691,0.2691,0.2727,0.2758,0.2812,0.2827,0.2918,0.2913,0.2908,0.2782,0.2855,0.2857,0.2859,0,0.1874,0.1897,0.1972,0.1997,0.2027,0.2079,0.2119,0.2201,0.2264,0.2419,0.2474,0.2602,0.2706,0.283,0.2881,0.2935,0.2831,0.2992,0.2931,0.2971,0.2971,0.2816,0.2694,0.3029,0.3032,0.3034,0.3036,0,0.1854,0.188,0.1918,0.1972,0.2015,0.2067,0.2141,0.2192,0.2311,0.2404,0.2555,0.2653,0.2842,0.2969,0.3064,0.3084,0.2958,0.3047,0.3078,0.3131,0.2982,0.2849,0.2914,0.3059,0.3057,0.3055,0.3054,0.3053,0.1825,0.1844,0.1891,0.1945,0.1993,0.205,0.2073,0.218,0.2282,0.2439,0.2579,0.2758,0.3027,0.32,0.3195,0.3319,0.3126,0.3303,0.3298,0.3137,0.3011,0.3138,0.3294,0.3293,0.3292,0.3292,0.3291,0,0.1778,0.181,0.1858,0.1911,0.1944,0.199,0.2081,0.2112,0.2216,0.2444,0.2589,0.2973,0.3197,0.3369,0.3616,0.3606,0.3366,0.3555,0.3372,0.3227,0.3388,0.3396,0.3595,0.3595,0.3595,0.3595,0.3595,0.3595,0.1748,0.1771,0.1809,0.1847,0.1882,0.1899,0.1934,0.2017,0.2171,0.2439,0.2693,0.2916,0.3411,0.3923,0.4055,0.3937,0.3615,0.3584,0.339,0.361,0.3585,0.3561,0.357,0.3802,0.3802,0.3131,0.3128,0.3125]},{"header":{"parameterUnit":"m.s-1","parameterCategory":2,"la1":30.2991,"la2":30.254,"lo1":-89.0895,"lo2":-89.0444,"dy":0.0017,"dx":0.0017,"nx":28,"ny":28,"refTime":"2025-12-28T09:00:00:Z","depth":"0","parameterNumber":3,"parameterNumberName":"V-component_of_CURRENTS"},"data":[0,0,0,0,0,0,0,0,0,0,0,0,0,0,0,0,0,0,0,0,0,0,0,0,0,0,0,0,0,0,0,0,0,0,0,0,0,0,0,0,0,0,0,0,0,0,0,0,0,0,0,0,0,0,0,0,0,0,-0.0592,-0.0592,0,-0.0614,-0.0614,-0.0614,-0.0647,-0.0648,-0.0648,-0.0649,-0.0693,-0.0694,-0.0694,0,0,0,0,0,0,0,0,0,0,0,0,0,-0.0632,-0.0631,-0.0592,-0.0592,-0.0592,-0.0614,-0.0614,-0.0614,-0.0647,-0.0648,-0.0648,-0.0649,-0.0693,-0.0694,-0.0694,0,0,0,0,0,0,0,0,0,0,0,0,0,-0.0631,-0.0631,-0.0592,-0.061,-0.0612,-0.0613,-0.0614,-0.0614,-0.0647,-0.0648,-0.0648,-0.0649,-0.0692,-0.0693,-0.0695,-0.0687,0,0,-0.0698,-0.0698,0,0,0,0,0,0,0,0,-0.0631,-0.063,-0.0607,-0.0609,-0.0611,-0.0628,-0.0645,-0.0639,-0.0647,-0.0635,-0.0649,-0.065,-0.0672,-0.0675,-0.0678,-0.0689,-0.069,-0.0698,-0.0699,-0.0699,-0.0699,0,0,0,0,0,0,0,-0.0631,-0.0629,-0.0601,-0.0607,-0.061,-0.0636,-0.0636,-0.0644,-0.065,-0.0636,-0.0638,-0.0639,-0.0673,-0.0677,-0.068,-0.0691,-0.0698,-0.0699,-0.07,-0.07,-0.0717,-0.0717,0,0,0,0,0,0,-0.0622,-0.0629,-0.0601,-0.0602,-0.0622,-0.0634,-0.0635,-0.0622,-0.065,-0.0654,-0.0638,-0.064,-0.0675,-0.0678,-0.0681,-0.0674,-0.0699,-0.07,-0.0701,-0.0718,-0.0717,-0.0717,0,0,0,0,0,0,-0.0623,-0.0619,-0.06,-0.0616,-0.0616,-0.0632,-0.0618,-0.0622,-0.0626,-0.0651,-0.0656,-0.0638,-0.0676,-0.068,-0.0688,-0.0676,-0.0701,-0.0702,-0.0718,-0.0717,-0.0717,-0.066,0,0,0,0,0,0,-0.0624,-0.0619,-0.0605,-0.0615,-0.0614,-0.0591,-0.0618,-0.0622,-0.0625,-0.0628,-0.0652,-0.0657,-0.0677,-0.0686,-0.0689,-0.0678,-0.0702,-0.0718,-0.0718,-0.0717,-0.0662,-0.0657,-0.0654,0,0,0,0,0,-0.0625,-0.0592,-0.0604,-0.0601,-0.0595,-0.059,-0.0591,-0.0608,-0.0624,-0.0616,-0.064,-0.0657,-0.0686,-0.0686,-0.069,-0.0679,-0.0718,-0.0718,-0.0717,-0.0663,-0.0658,-0.0654,0,0,0,0,0,0,-0.0592,-0.0593,-0.0606,-0.0573,-0.0581,-0.0595,-0.0584,-0.0603,-0.0615,-0.0619,-0.065,-0.0656,-0.0661,-0.0678,-0.0678,-0.0685,-0.0706,-0.0707,-0.0664,-0.066,-0.0656,-0.0637,-0.0703,0,0,0,0,0,-0.0581,-0.0561,-0.0573,-0.0546,-0.0548,-0.0569,-0.0569,-0.0582,-0.0595,-0.0602,-0.0622,-0.0644,-0.0661,-0.0666,-0.0683,-0.068,-0.0706,-0.0679,-0.0674,-0.0671,-0.0659,-0.0695,-0.0693,-0.0716,-0.0716,-0.0716,0,0,-0.056,-0.0558,-0.0546,-0.0539,-0.0547,-0.0537,-0.057,-0.0563,-0.0558,-0.0604,-0.06,-0.0629,-0.0658,-0.066,-0.0664,-0.0673,-0.0678,-0.067,-0.0667,-0.0657,-0.0695,-0.0693,-0.0691,-0.0715,-0.0715,-0.0716,0,0,-0.051,-0.0507,-0.0481,-0.0485,-0.0492,-0.0505,-0.0502,-0.0518,-0.0528,-0.0531,-0.0567,-0.0587,-0.0606,-0.0626,-0.0639,-0.0622,-0.0657,-0.063,-0.059,-0.0626,-0.0624,-0.0623,-0.065,-0.0652,-0.0626,-0.0626,-0.0626,0,-0.0487,-0.0456,-0.0472,-0.0455,-0.045,-0.0488,-0.0465,-0.0477,-0.0495,-0.05,-0.0521,-0.0562,-0.0589,-0.0596,-0.0594,-0.0611,-0.0636,-0.0604,-0.0619,-0.0619,-0.0619,-0.0648,-0.065,-0.0623,-0.0624,-0.0624,-0.0624,0,-0.0428,-0.0407,-0.0389,-0.0381,-0.0379,-0.0363,-0.0386,-0.0389,-0.0412,-0.0432,-0.0448,-0.0491,-0.0515,-0.0531,-0.0556,-0.0565,-0.0586,-0.0611,-0.0628,-0.0613,-0.0644,-0.0648,-0.0619,-0.062,-0.0621,-0.0622,0,0,-0.0369,-0.0351,-0.0347,-0.0332,-0.034,-0.0328,-0.0322,-0.0326,-0.032,-0.0355,-0.0352,-0.0395,-0.043,-0.0447,-0.0488,-0.0519,-0.0543,-0.0558,-0.0561,-0.0579,-0.0618,-0.0654,-0.0662,-0.0574,-0.0575,-0.0575,-0.064,0,-0.0322,-0.027,-0.0278,-0.0233,-0.021,-0.024,-0.0227,-0.0239,-0.0264,-0.0271,-0.0327,-0.0342,-0.0395,-0.0408,-0.0447,-0.0519,-0.0551,-0.0523,-0.0636,-0.0639,-0.0668,-0.0667,-0.0716,-0.078,-0.0644,-0.0645,-0.0645,0,-0.0268,-0.024,-0.0188,-0.0159,-0.0152,-0.0136,-0.0127,-0.0122,-0.0152,-0.0172,-0.0208,-0.0254,-0.0301,-0.0352,-0.0461,-0.0442,-0.052,-0.058,-0.0585,-0.0639,-0.0683,-0.0775,-0.0792,-0.1032,-0.0651,-0.0651,-0.065,0,-0.0222,-0.0178,-0.0132,-0.0123,-0.01,-0.0085,-0.0077,-0.0093,-0.0081,-0.0115,-0.0111,-0.0185,-0.0215,-0.0321,-0.0447,-0.0456,-0.057,-0.0603,-0.0707,-0.0711,-0.0783,-0.0793,-0.1039,-0.0678,-0.0678,-0.0678,-0.0678,0,-0.0169,-0.0131,-0.0107,-0.0081,-0.0024,-0.0034,0.001,0.0002,-0.0005,0.0025,-0.0058,-0.0053,-0.021,-0.0294,-0.042,-0.0572,-0.0554,-0.0696,-0.073,-0.0765,-0.0771,-0.1008,-0.114,-0.068,-0.068,-0.0679,-0.0679,0,-0.0122,-0.0109,-0.005,-0.0014,0.0,0.0039,0.0076,0.0106,0.0086,0.0121,0.0117,0.0042,-0.007,-0.0231,-0.0403,-0.0531,-0.0831,-0.0735,-0.076,-0.0796,-0.112,-0.1244,-0.1522,-0.1643,-0.0863,-0.0864,-0.0865,0,-0.0093,-0.0058,0.0004,0.0046,0.0066,0.0115,0.0153,0.015,0.019,0.0189,0.0222,0.0122,0.0072,-0.0201,-0.0455,-0.0689,-0.0895,-0.0887,-0.0917,-0.1148,-0.1312,-0.1409,-0.1496,-0.0992,-0.0995,-0.0996,-0.0998,0,-0.0028,-0.0009,0.0044,0.0126,0.0178,0.0241,0.0297,0.0343,0.0352,0.0374,0.0394,0.0349,0.0076,-0.0186,-0.0521,-0.0705,-0.1104,-0.0928,-0.1173,-0.144,-0.1557,-0.1684,-0.0935,-0.1012,-0.1011,-0.101,-0.1009,-0.1008,0.0026,0.0076,0.0144,0.0227,0.0287,0.0372,0.0433,0.0491,0.0557,0.0601,0.054,0.0485,0.0069,-0.0402,-0.0685,-0.1254,-0.1234,-0.142,-0.1551,-0.1624,-0.1761,-0.1036,-0.1149,-0.1148,-0.1147,-0.1147,-0.1146,0,0.0109,0.0162,0.0242,0.0341,0.0422,0.0433,0.0538,0.0598,0.0688,0.0694,0.0691,0.0409,-0.0101,-0.0619,-0.1342,-0.1768,-0.1948,-0.2033,-0.2204,-0.226,-0.1624,-0.1651,-0.1871,-0.1871,-0.1871,-0.1871,-0.1871,-0.187,0.0157,0.0258,0.0299,0.0447,0.0509,0.0613,0.0677,0.0749,0.0779,0.0753,0.0667,0.0569,0.0077,-0.1187,-0.2145,-0.2375,-0.2731,-0.2827,-0.2968,-0.2564,-0.2517,-0.2472,-0.2529,-0.293,-0.2932,-0.3562,-0.3568,-0.3573]}],[{"header":{"parameterUnit":"m.s-1","parameterCategory":2,"la1":30.2991,"la2":30.254,"lo1":-89.0895,"lo2":-89.0444,"dy":0.0017,"dx":0.0017,"nx":28,"ny":28,"refTime":"2025-12-28T09:00:00:Z","depth":"2","parameterNumber":2,"parameterNumberName":"U-component_of_CURRENTS"},"data":[0,0,0,0,0,0,0,0,0,0,0,0,0,0,0,0,0,0,0,0,0,0,0,0,0,0,0,0,0,0,0,0,0,0,0,0,0,0,0,0,0,0,0,0,0,0,0,0,0,0,0,0,0,0,0,0,0,0,0.1957,0.1958,0,0.1985,0.1985,0.1985,0.1982,0.1982,0.1982,0.1981,0.1957,0.1956,0.1956,0,0,0,0,0,0,0,0,0,0,0,0,0,0.1902,0.1903,0.1957,0.1958,0.1959,0.1984,0.1985,0.1985,0.1982,0.1982,0.1982,0.1981,0.1957,0.1956,0.1956,0,0,0,0,0,0,0,0,0,0,0,0,0,0.1925,0.1903,0.1957,0.1962,0.1963,0.1984,0.1985,0.1985,0.1982,0.1982,0.1982,0.1981,0.1957,0.1956,0.1956,0.1957,0,0,0.1954,0.1953,0,0,0,0,0,0,0,0,0.1924,0.1927,0.1961,0.1962,0.1963,0.1982,0.1956,0.1974,0.1982,0.1972,0.1981,0.1981,0.1962,0.1961,0.1964,0.1956,0.1955,0.1954,0.1953,0.1953,0.1953,0,0,0,0,0,0,0,0.1922,0.1926,0.1966,0.1962,0.1963,0.1963,0.1965,0.196,0.1966,0.1973,0.1974,0.1981,0.1962,0.1965,0.1963,0.1955,0.1954,0.1953,0.1952,0.1952,0.1973,0.1974,0,0,0,0,0,0,0.1924,0.1924,0.1965,0.1967,0.1945,0.1964,0.1967,0.1974,0.1967,0.1967,0.1981,0.198,0.1966,0.1964,0.1962,0.1988,0.1953,0.1952,0.1952,0.1972,0.1973,0.1974,0,0,0,0,0,0,0.1923,0.1928,0.1964,0.1948,0.1953,0.1966,0.1973,0.1975,0.1981,0.1974,0.1972,0.1986,0.1966,0.1963,0.1969,0.1986,0.1952,0.1951,0.1971,0.1972,0.1973,0.2023,0,0,0,0,0,0,0.1921,0.1927,0.1932,0.1948,0.1954,0.1981,0.1974,0.1976,0.1987,0.1986,0.1978,0.1975,0.1965,0.1971,0.1969,0.1984,0.1951,0.1969,0.1971,0.1973,0.202,0.2026,0.2031,0,0,0,0,0,0.1919,0.1924,0.1932,0.1937,0.196,0.1982,0.1985,0.1991,0.1987,0.1994,0.1993,0.1975,0.1981,0.1971,0.1968,0.1984,0.1969,0.1971,0.1973,0.2018,0.2025,0.2031,0,0,0,0,0,0,0.1895,0.1925,0.1934,0.1946,0.1967,0.1983,0.1989,0.1995,0.2,0.1997,0.1987,0.1985,0.1997,0.1984,0.1974,0.1996,0.1972,0.1974,0.2007,0.2014,0.2019,0.2024,0.195,0,0,0,0,0,0.1896,0.191,0.1938,0.1947,0.196,0.1976,0.1985,0.1993,0.2001,0.2003,0.2,0.1998,0.2004,0.2004,0.2004,0.2013,0.202,0.2022,0.2027,0.2032,0.2035,0.2064,0.2073,0.1981,0.1981,0.1981,0,0,0.1886,0.1907,0.1913,0.1944,0.1959,0.1984,0.198,0.1998,0.2017,0.1999,0.2016,0.2016,0.2012,0.2028,0.2032,0.2018,0.2065,0.2035,0.2039,0.204,0.2067,0.2076,0.2084,0.1983,0.1982,0.1982,0,0,0.1883,0.1898,0.1915,0.1938,0.1971,0.1986,0.1994,0.2017,0.2026,0.2045,0.2043,0.2056,0.2055,0.2065,0.2067,0.2101,0.2094,0.2098,0.2127,0.2156,0.2163,0.217,0.2206,0.2216,0.2099,0.2099,0.2099,0,0.1871,0.1902,0.1922,0.195,0.1972,0.199,0.2016,0.2031,0.2052,0.2066,0.2054,0.2082,0.2075,0.2108,0.212,0.2114,0.213,0.2103,0.2163,0.217,0.2176,0.2211,0.2221,0.2102,0.2101,0.2101,0.2101,0,0.1891,0.1917,0.1929,0.1975,0.1998,0.2022,0.2054,0.2075,0.2085,0.2101,0.2133,0.2134,0.2152,0.2154,0.2145,0.219,0.2188,0.2169,0.2147,0.2189,0.2223,0.2233,0.2105,0.2104,0.2104,0.2103,0,0,0.1863,0.193,0.1936,0.1965,0.2015,0.2036,0.2075,0.2118,0.2147,0.2163,0.2201,0.2214,0.2218,0.2222,0.222,0.2239,0.2299,0.2223,0.2223,0.226,0.2374,0.2434,0.245,0.2291,0.2293,0.2294,0.2386,0,0.1876,0.1931,0.1962,0.2011,0.2045,0.2079,0.2115,0.2153,0.2182,0.2222,0.2236,0.2267,0.2244,0.2259,0.2278,0.2295,0.2324,0.2277,0.2327,0.2328,0.2378,0.2463,0.2198,0.2263,0.2395,0.2397,0.2398,0,0.1894,0.193,0.198,0.2044,0.2061,0.2089,0.2156,0.2191,0.225,0.2271,0.2308,0.2323,0.2368,0.2334,0.2393,0.2365,0.2376,0.2383,0.2386,0.243,0.2406,0.224,0.2276,0.2414,0.2412,0.2411,0.241,0,0.1877,0.1945,0.1984,0.2007,0.2078,0.2104,0.214,0.2203,0.2243,0.2309,0.2348,0.2392,0.2428,0.2446,0.2472,0.2437,0.2538,0.2488,0.2555,0.2559,0.2339,0.2322,0.2533,0.2533,0.2533,0.2532,0.2532,0,0.1886,0.1916,0.1979,0.2001,0.205,0.2099,0.2151,0.2199,0.227,0.2334,0.2371,0.244,0.2457,0.2518,0.2514,0.2591,0.2579,0.259,0.2599,0.2353,0.2337,0.2458,0.2448,0.2536,0.2535,0.2535,0.2534,0,0.1864,0.1907,0.1954,0.2023,0.2044,0.2078,0.2155,0.2198,0.2269,0.2359,0.2387,0.2491,0.2588,0.2617,0.2669,0.2668,0.2712,0.2734,0.2462,0.244,0.2699,0.269,0.2822,0.2825,0.2828,0.283,0.2832,0,0.1858,0.1881,0.1956,0.1981,0.2011,0.2063,0.2103,0.2185,0.2247,0.2401,0.2456,0.2583,0.2672,0.2793,0.2762,0.2791,0.2822,0.2625,0.252,0.2739,0.2734,0.2721,0.2709,0.2233,0.223,0.2227,0.2225,0,0.1839,0.1865,0.1903,0.1957,0.2,0.2051,0.2125,0.2175,0.2293,0.2372,0.2522,0.2606,0.2718,0.2652,0.2712,0.2686,0.26,0.2583,0.2862,0.2236,0.2201,0.2191,0.2194,0.2202,0.2204,0.2206,0.2207,0.2208,0.1811,0.1829,0.1876,0.1929,0.1978,0.2034,0.2057,0.2114,0.2196,0.226,0.2446,0.2452,0.2509,0.2456,0.2427,0.2387,0.2559,0.2447,0.2445,0.2449,0.24,0.2376,0.2399,0.2402,0.2405,0.2408,0.241,0,0.1747,0.1795,0.1843,0.1896,0.1905,0.1974,0.2064,0.2021,0.2045,0.2113,0.2166,0.2025,0.2022,0.2083,0.1975,0.2048,0.1913,0.2002,0.1776,0.1803,0.1827,0.1736,0.1564,0.1561,0.1559,0.1556,0,0,0.1712,0.1727,0.1764,0.1787,0.1838,0.1806,0.1839,0.1787,0.1786,0.1717,0.1689,0.1805,0.1979,0.1692,0.1714,0.1622,0.1677,0.1558,0.2236,0.1991,0.2009,0.2092,0.1989,0,0,0,0,0]},{"header":{"parameterUnit":"m.s-1","parameterCategory":2,"la1":30.2991,"la2":30.254,"lo1":-89.0895,"lo2":-89.0444,"dy":0.0017,"dx":0.0017,"nx":28,"ny":28,"refTime":"2025-12-28T09:00:00:Z","depth":"2","parameterNumber":3,"parameterNumberName":"V-component_of_CURRENTS"},"data":[0,0,0,0,0,0,0,0,0,0,0,0,0,0,0,0,0,0,0,0,0,0,0,0,0,0,0,0,0,0,0,0,0,0,0,0,0,0,0,0,0,0,0,0,0,0,0,0,0,0,0,0,0,0,0,0,0,0,-0.0539,-0.0539,0,-0.056,-0.056,-0.0561,-0.0594,-0.0595,-0.0595,-0.0596,-0.064,-0.0641,-0.0642,0,0,0,0,0,0,0,0,0,0,0,0,0,-0.0582,-0.0581,-0.0539,-0.0539,-0.0539,-0.056,-0.056,-0.0561,-0.0594,-0.0595,-0.0595,-0.0596,-0.064,-0.0641,-0.0642,0,0,0,0,0,0,0,0,0,0,0,0,0,-0.058,-0.058,-0.0539,-0.0558,-0.0559,-0.056,-0.056,-0.0561,-0.0594,-0.0595,-0.0596,-0.0596,-0.064,-0.0641,-0.0642,-0.0633,0,0,-0.0645,-0.0646,0,0,0,0,0,0,0,0,-0.058,-0.0578,-0.0555,-0.0556,-0.0558,-0.0574,-0.0592,-0.0586,-0.0594,-0.0582,-0.0596,-0.0597,-0.0619,-0.0622,-0.0625,-0.0635,-0.0637,-0.0645,-0.0646,-0.0646,-0.0647,0,0,0,0,0,0,0,-0.058,-0.0578,-0.0548,-0.0555,-0.0557,-0.0584,-0.0584,-0.0591,-0.0597,-0.0583,-0.0585,-0.0586,-0.0621,-0.0624,-0.0627,-0.0638,-0.0645,-0.0646,-0.0647,-0.0647,-0.0664,-0.0664,0,0,0,0,0,0,-0.0571,-0.0577,-0.0547,-0.0549,-0.057,-0.0582,-0.0582,-0.0569,-0.0597,-0.0601,-0.0585,-0.0587,-0.0622,-0.0625,-0.0628,-0.0622,-0.0646,-0.0647,-0.0648,-0.0664,-0.0664,-0.0664,0,0,0,0,0,0,-0.0572,-0.0568,-0.0547,-0.0564,-0.0563,-0.058,-0.0565,-0.0569,-0.0574,-0.0598,-0.0603,-0.0586,-0.0623,-0.0627,-0.0635,-0.0624,-0.0648,-0.0649,-0.0664,-0.0664,-0.0664,-0.0607,0,0,0,0,0,0,-0.0573,-0.0567,-0.0554,-0.0563,-0.0562,-0.0537,-0.0565,-0.0569,-0.0572,-0.0576,-0.06,-0.0605,-0.0624,-0.0633,-0.0636,-0.0626,-0.065,-0.0665,-0.0664,-0.0664,-0.0609,-0.0605,-0.0602,0,0,0,0,0,-0.0574,-0.0541,-0.0552,-0.0549,-0.0542,-0.0536,-0.0538,-0.0555,-0.0572,-0.0564,-0.0588,-0.0604,-0.0634,-0.0634,-0.0637,-0.0627,-0.0665,-0.0664,-0.0664,-0.0611,-0.0606,-0.0602,0,0,0,0,0,0,-0.0542,-0.0541,-0.0554,-0.0521,-0.0528,-0.0542,-0.0531,-0.055,-0.0562,-0.0567,-0.0598,-0.0603,-0.0608,-0.0626,-0.0625,-0.0633,-0.0653,-0.0654,-0.0612,-0.0607,-0.0604,-0.0585,-0.065,0,0,0,0,0,-0.0531,-0.051,-0.0521,-0.0494,-0.0496,-0.0517,-0.0517,-0.053,-0.0543,-0.055,-0.057,-0.0592,-0.0608,-0.0614,-0.063,-0.0628,-0.0653,-0.0626,-0.0622,-0.0618,-0.0607,-0.0643,-0.0641,-0.0662,-0.0662,-0.0662,0,0,-0.0509,-0.0507,-0.0495,-0.0488,-0.0495,-0.0484,-0.0518,-0.0511,-0.0506,-0.0551,-0.0548,-0.0577,-0.0606,-0.0608,-0.0611,-0.062,-0.0626,-0.0618,-0.0614,-0.0605,-0.0643,-0.064,-0.0639,-0.0662,-0.0662,-0.0662,0,0,-0.046,-0.0457,-0.043,-0.0434,-0.0441,-0.0453,-0.0451,-0.0466,-0.0477,-0.048,-0.0515,-0.0536,-0.0555,-0.0575,-0.0588,-0.057,-0.0605,-0.0579,-0.0539,-0.0575,-0.0573,-0.0572,-0.06,-0.0602,-0.0575,-0.0575,-0.0574,0,-0.0437,-0.0405,-0.0422,-0.0404,-0.04,-0.0437,-0.0414,-0.0426,-0.0444,-0.0449,-0.047,-0.0511,-0.0537,-0.0545,-0.0543,-0.0559,-0.0585,-0.0553,-0.0569,-0.0568,-0.0568,-0.0597,-0.06,-0.0572,-0.0572,-0.0572,-0.0573,0,-0.0378,-0.0357,-0.0339,-0.0331,-0.0329,-0.0312,-0.0335,-0.0339,-0.0362,-0.0382,-0.0398,-0.0441,-0.0465,-0.0481,-0.0505,-0.0515,-0.0536,-0.0561,-0.0577,-0.0562,-0.0594,-0.0598,-0.0568,-0.0569,-0.057,-0.057,0,0,-0.032,-0.0301,-0.0297,-0.0283,-0.029,-0.0278,-0.0272,-0.0276,-0.027,-0.0306,-0.0303,-0.0345,-0.038,-0.0398,-0.0439,-0.0469,-0.0495,-0.0508,-0.0512,-0.0529,-0.0569,-0.0606,-0.0614,-0.0525,-0.0526,-0.0526,-0.0592,0,-0.0273,-0.0221,-0.0228,-0.0184,-0.0161,-0.019,-0.0177,-0.019,-0.0214,-0.0222,-0.0278,-0.0293,-0.0346,-0.036,-0.0398,-0.047,-0.0503,-0.0474,-0.0587,-0.059,-0.0619,-0.0619,-0.0539,-0.0593,-0.0596,-0.0596,-0.0597,0,-0.022,-0.0192,-0.0139,-0.011,-0.0103,-0.0087,-0.0078,-0.0074,-0.0104,-0.0124,-0.016,-0.0207,-0.0253,-0.0304,-0.0413,-0.0394,-0.0472,-0.0532,-0.0537,-0.0591,-0.0634,-0.0611,-0.0601,-0.0604,-0.0603,-0.0603,-0.0602,0,-0.0174,-0.013,-0.0084,-0.0075,-0.0051,-0.0037,-0.0029,-0.0045,-0.0033,-0.0067,-0.0064,-0.0138,-0.0168,-0.0274,-0.04,-0.0409,-0.0524,-0.0555,-0.066,-0.0663,-0.0627,-0.0627,-0.0631,-0.0631,-0.0631,-0.0631,-0.0631,0,-0.0121,-0.0084,-0.0059,-0.0033,0.0023,0.0013,0.0057,0.0048,0.0042,0.0072,-0.0011,-0.0007,-0.0164,-0.0248,-0.0373,-0.0525,-0.0508,-0.0649,-0.0683,-0.0606,-0.0603,-0.0638,-0.0637,-0.0633,-0.0633,-0.0632,-0.0632,0,-0.0076,-0.0063,-0.0004,0.0033,0.0047,0.0085,0.0122,0.0152,0.0132,0.0167,0.0162,0.0087,-0.0026,-0.0186,-0.0358,-0.0485,-0.063,-0.0689,-0.0586,-0.0608,-0.0752,-0.0748,-0.0813,-0.0815,-0.0816,-0.0817,-0.0819,0,-0.0047,-0.0012,0.0049,0.0091,0.0111,0.016,0.0198,0.0195,0.0235,0.0234,0.0266,0.0166,0.0121,-0.0152,-0.0363,-0.0586,-0.0649,-0.0707,-0.0719,-0.0744,-0.0771,-0.0765,-0.0759,-0.0645,-0.0644,-0.0644,-0.0644,0,0.0018,0.0036,0.0089,0.017,0.0222,0.0285,0.0341,0.0386,0.0396,0.0424,0.0443,0.0403,0.0168,-0.0028,-0.0348,-0.0502,-0.0669,-0.0711,-0.0755,-0.062,-0.0594,-0.0618,-0.0616,-0.0641,-0.0641,-0.0641,-0.0641,-0.0641,0.007,0.012,0.0187,0.027,0.033,0.0414,0.0476,0.0562,0.0637,0.0722,0.0625,0.0603,0.0328,-0.0023,-0.0314,-0.062,-0.0631,-0.0749,-0.0747,-0.0745,-0.0723,-0.0702,-0.0764,-0.0765,-0.0766,-0.0766,-0.0767,0,0.0171,0.0205,0.0284,0.0383,0.0483,0.0475,0.058,0.0687,0.0821,0.087,0.0899,0.0692,0.0424,0.009,-0.0323,-0.0615,-0.0609,-0.0738,-0.0654,-0.0655,-0.0656,-0.0627,-0.0644,-0.0645,-0.0646,-0.0646,0,0,0.0224,0.0332,0.0373,0.0529,0.0574,0.0723,0.0789,0.094,0.1027,0.1128,0.1106,0.1009,0.0558,0.0279,-0.0113,-0.0374,-0.0452,-0.043,-0.0494,-0.0348,-0.0345,-0.0626,-0.0579,0,0,0,0,0]}],[{"header":{"parameterUnit":"m.s-1","parameterCategory":2,"la1":30.2991,"la2":30.254,"lo1":-89.0895,"lo2":-89.0444,"dy":0.0017,"dx":0.0017,"nx":28,"ny":28,"refTime":"2025-12-28T09:00:00:Z","depth":"4","parameterNumber":2,"parameterNumberName":"U-component_of_CURRENTS"},"data":[0,0,0,0,0,0,0,0,0,0,0,0,0,0,0,0,0,0,0,0,0,0,0,0,0,0,0,0,0,0,0,0,0,0,0,0,0,0,0,0,0,0,0,0,0,0,0,0,0,0,0,0,0,0,0,0,0,0,0.1071,0.1072,0,0.1141,0.1142,0.1143,0.1185,0.1185,0.1186,0.1186,0.1244,0.1245,0.1246,0,0,0,0,0,0,0,0,0,0,0,0,0,0.0946,0.0948,0.1071,0.1073,0.1074,0.1141,0.1142,0.1143,0.1185,0.1185,0.1186,0.1186,0.1243,0.1245,0.1246,0,0,0,0,0,0,0,0,0,0,0,0,0,0.1004,0.0949,0.1071,0.1105,0.1109,0.1141,0.1142,0.1143,0.1184,0.1185,0.1186,0.1186,0.1243,0.1244,0.1246,0.1243,0,0,0.1251,0.1252,0,0,0,0,0,0,0,0,0.1001,0.1008,0.1099,0.1103,0.1107,0.1157,0.1119,0.1177,0.1184,0.1153,0.1186,0.1187,0.1215,0.1219,0.1227,0.1246,0.1248,0.1251,0.1252,0.1253,0.1254,0,0,0,0,0,0,0,0.0997,0.1005,0.1096,0.11,0.1105,0.1107,0.1116,0.113,0.1177,0.1155,0.1159,0.1171,0.1217,0.1225,0.1229,0.1249,0.1251,0.1253,0.1254,0.1255,0.1344,0.1345,0,0,0,0,0,0,0.0995,0.1002,0.1094,0.1099,0.1057,0.1109,0.1119,0.1138,0.1177,0.1185,0.1171,0.1173,0.1222,0.1227,0.1231,0.1302,0.1253,0.1255,0.1256,0.1343,0.1344,0.1346,0,0,0,0,0,0,0.0992,0.1002,0.1091,0.1053,0.1065,0.1111,0.1132,0.1139,0.1176,0.1189,0.1196,0.1204,0.1223,0.1228,0.1271,0.1302,0.1255,0.1257,0.1341,0.1343,0.1345,0.1399,0,0,0,0,0,0,0.0988,0.1001,0.1026,0.1054,0.1067,0.1131,0.1132,0.114,0.1182,0.1186,0.1219,0.1224,0.1224,0.1269,0.1273,0.1304,0.1258,0.1339,0.1342,0.1344,0.1395,0.1402,0.1408,0,0,0,0,0,0.0983,0.1013,0.1027,0.1039,0.1097,0.1132,0.1139,0.1171,0.1183,0.1205,0.123,0.1224,0.1288,0.1271,0.1276,0.1308,0.1338,0.1341,0.1344,0.1392,0.1401,0.1408,0,0,0,0,0,0,0.0977,0.1021,0.1037,0.1082,0.1114,0.1141,0.1171,0.1187,0.1223,0.1236,0.1242,0.1249,0.1297,0.1295,0.1277,0.1341,0.1312,0.1316,0.1347,0.1355,0.1362,0.1363,0.126,0,0,0,0,0,0.0986,0.1021,0.1057,0.1096,0.1114,0.1146,0.1169,0.1191,0.1221,0.1239,0.1261,0.1285,0.1308,0.1327,0.1344,0.138,0.138,0.1403,0.141,0.1416,0.142,0.1444,0.1453,0.1356,0.1356,0.1356,0,0,0.0995,0.1025,0.1047,0.1097,0.1126,0.1158,0.1162,0.1208,0.124,0.1238,0.1296,0.1312,0.1323,0.1365,0.1386,0.1371,0.1446,0.142,0.1424,0.1426,0.1448,0.1457,0.1465,0.1358,0.1357,0.1357,0,0,0.1018,0.1059,0.109,0.1119,0.1169,0.1188,0.1206,0.1249,0.1277,0.1326,0.1334,0.137,0.1408,0.1422,0.1432,0.1486,0.148,0.1496,0.1533,0.1556,0.1564,0.1571,0.1592,0.16,0.15,0.15,0.15,0,0.1028,0.1074,0.1105,0.1139,0.117,0.1203,0.1239,0.127,0.1322,0.1349,0.1354,0.1422,0.1433,0.1479,0.15,0.1501,0.1513,0.1501,0.1564,0.1571,0.1577,0.1597,0.1606,0.1503,0.1502,0.1502,0.1502,0,0.1064,0.1109,0.1132,0.1186,0.122,0.1261,0.1301,0.1345,0.1381,0.1407,0.1472,0.1491,0.153,0.1541,0.1539,0.1593,0.1588,0.1569,0.1542,0.159,0.1608,0.1616,0.1507,0.1506,0.1505,0.1504,0,0,0.1059,0.114,0.1151,0.1184,0.125,0.128,0.134,0.1397,0.1442,0.1491,0.1545,0.1588,0.1604,0.1616,0.1623,0.1644,0.17,0.1633,0.1632,0.1651,0.1759,0.1675,0.1676,0.1697,0.1698,0.17,0.1757,0,0.1079,0.1145,0.1183,0.125,0.1286,0.1338,0.1388,0.1445,0.1496,0.1556,0.1587,0.164,0.1631,0.1661,0.1683,0.1698,0.1723,0.1687,0.1712,0.1713,0.163,0.1682,0.1704,0.1762,0.1764,0.1765,0.1766,0,0.1094,0.1139,0.1205,0.1285,0.1307,0.1354,0.1444,0.1495,0.1576,0.1617,0.1675,0.1701,0.1755,0.1732,0.1787,0.1768,0.1774,0.1775,0.1777,0.1683,0.1643,0.1703,0.178,0.1779,0.1778,0.1777,0.1776,0,0.1064,0.1152,0.1207,0.1236,0.1329,0.1377,0.1433,0.1519,0.157,0.1665,0.1712,0.177,0.1815,0.1831,0.1849,0.1828,0.1897,0.1861,0.179,0.1784,0.1817,0.1809,0.1895,0.1895,0.1895,0.1895,0.1895,0,0.1056,0.1103,0.1204,0.1234,0.1304,0.1376,0.1457,0.1522,0.1615,0.1678,0.1746,0.1798,0.1844,0.1887,0.1881,0.1868,0.1927,0.1807,0.1796,0.184,0.1833,0.1823,0.1814,0.1897,0.1897,0.1896,0.1896,0,0.1012,0.1079,0.1146,0.1255,0.1292,0.1346,0.1464,0.1519,0.1619,0.1705,0.1741,0.1839,0.1895,0.1928,0.1963,0.1906,0.19,0.1879,0.1944,0.1934,0.1763,0.1756,0.1796,0.1794,0.1792,0.179,0.1789,0,0.0991,0.1025,0.1146,0.119,0.1246,0.1334,0.1393,0.1507,0.1567,0.1717,0.175,0.185,0.19,0.1879,0.1922,0.1914,0.1887,0.1872,0.1794,0.1769,0.1754,0.1751,0.1747,0.1785,0.1785,0.1784,0.1784,0,0.0951,0.1006,0.1062,0.1149,0.1223,0.1291,0.1389,0.1418,0.1553,0.1658,0.1714,0.1743,0.1807,0.1821,0.1838,0.1824,0.1871,0.1849,0.1852,0.1779,0.1756,0.1743,0.1741,0.1777,0.1778,0.1778,0.1779,0,0.092,0.0947,0.1028,0.1096,0.1179,0.1227,0.1285,0.1357,0.1422,0.1584,0.1602,0.1703,0.1795,0.1778,0.1794,0.1779,0.1738,0.1664,0.1675,0.1684,0.162,0.1573,0.1537,0,0,0,0,0,0.088,0.0907,0.0968,0.1035,0.1112,0.1161,0.1273,0.1334,0.1461,0.1464,0.1526,0.1577,0.1607,0.1658,0.1617,0.1746,0.1746,0.1691,0.1666,0.1737,0.1745,0.168,0,0,0,0,0,0,0.0855,0.0909,0.094,0.0969,0.0998,0.1073,0.1138,0.1227,0.1233,0.1363,0.1382,0.1484,0.1529,0.1604,0.1583,0.16,0.1553,0.1758,0.1754,0.1732,0.174,0.1747,0.1682,0,0,0,0,0]},{"header":{"parameterUnit":"m.s-1","parameterCategory":2,"la1":30.2991,"la2":30.254,"lo1":-89.0895,"lo2":-89.0444,"dy":0.0017,"dx":0.0017,"nx":28,"ny":28,"refTime":"2025-12-28T09:00:00:Z","depth":"4","parameterNumber":3,"parameterNumberName":"V-component_of_CURRENTS"},"data":[0,0,0,0,0,0,0,0,0,0,0,0,0,0,0,0,0,0,0,0,0,0,0,0,0,0,0,0,0,0,0,0,0,0,0,0,0,0,0,0,0,0,0,0,0,0,0,0,0,0,0,0,0,0,0,0,0,0,0.028,0.0279,0,0.021,0.021,0.0209,0.0176,0.0176,0.0176,0.0176,0.0108,0.0106,0.0104,0,0,0,0,0,0,0,0,0,0,0,0,0,0.0366,0.0365,0.028,0.0279,0.0278,0.0211,0.021,0.0209,0.0176,0.0176,0.0176,0.0176,0.0108,0.0106,0.0104,0,0,0,0,0,0,0,0,0,0,0,0,0,0.0316,0.0364,0.028,0.0253,0.025,0.0211,0.021,0.0209,0.0176,0.0176,0.0176,0.0176,0.0109,0.0106,0.0104,0.0087,0,0,0.0095,0.0094,0,0,0,0,0,0,0,0,0.0319,0.0313,0.0258,0.0255,0.0251,0.0202,0.0215,0.0168,0.0176,0.0204,0.0176,0.0176,0.0139,0.0134,0.0121,0.0084,0.0081,0.0095,0.0093,0.0092,0.0092,0,0,0,0,0,0,0,0.0323,0.0316,0.0253,0.0257,0.0253,0.0239,0.0232,0.0206,0.0173,0.0202,0.0199,0.0191,0.0137,0.0124,0.0119,0.008,0.0095,0.0093,0.0091,0.009,0.0009,0.0009,0,0,0,0,0,0,0.0331,0.0319,0.0255,0.025,0.0286,0.0237,0.023,0.0218,0.0173,0.0166,0.0191,0.019,0.0129,0.0123,0.0117,0.0087,0.0092,0.009,0.0088,0.001,0.0009,0.0009,0,0,0,0,0,0,0.0333,0.0326,0.0257,0.0283,0.0273,0.0236,0.0223,0.0216,0.0201,0.0165,0.0158,0.0183,0.0128,0.0121,0.0092,0.0085,0.0089,0.0086,0.001,0.001,0.0009,0.0033,0,0,0,0,0,0,0.0336,0.0327,0.0322,0.0284,0.0272,0.0235,0.0223,0.0215,0.0196,0.0194,0.0155,0.0149,0.0128,0.0096,0.0089,0.0081,0.0084,0.0011,0.001,0.0009,0.0033,0.0033,0.0033,0,0,0,0,0,0.0339,0.0329,0.0322,0.0314,0.0266,0.0235,0.0228,0.0201,0.0196,0.0188,0.0163,0.015,0.0085,0.0094,0.0086,0.0077,0.0011,0.001,0.0009,0.0033,0.0033,0.0033,0,0,0,0,0,0,0.0357,0.0323,0.0315,0.0294,0.0269,0.0229,0.0218,0.0203,0.0176,0.0174,0.0144,0.0135,0.0107,0.0088,0.0098,0.005,0.0046,0.0043,0.0066,0.0066,0.0067,0.0082,0.0082,0,0,0,0,0,0.0361,0.0349,0.0314,0.0298,0.0287,0.0255,0.0239,0.0222,0.0193,0.0181,0.0154,0.0124,0.0095,0.0079,0.0052,0.0026,0.0004,0.0014,0.0014,0.0015,0.0021,-0.0023,-0.0026,0.0005,0.0005,0.0005,0,0,0.0363,0.0343,0.0336,0.0302,0.0281,0.0268,0.0245,0.0222,0.0212,0.0178,0.0155,0.0125,0.0089,0.006,0.0045,0.0043,-0.0006,0.0013,0.0014,0.002,-0.0025,-0.0028,-0.003,0.0004,0.0004,0.0004,0,0,0.0367,0.0345,0.0341,0.0324,0.0295,0.0275,0.0271,0.0233,0.0217,0.019,0.0163,0.013,0.0087,0.0059,0.004,0.0024,-0.0003,0.0013,0.0025,-0.0017,-0.002,-0.0023,-0.0053,-0.0059,0.0012,0.0012,0.0012,0,0.0374,0.0364,0.0335,0.0328,0.0319,0.0282,0.028,0.0254,0.0212,0.02,0.0187,0.0119,0.0087,0.0051,0.0044,0.0025,0.0001,0.0029,-0.0016,-0.0019,-0.0022,-0.0053,-0.006,0.0013,0.0013,0.0013,0.0013,0,0.0378,0.0372,0.0367,0.0352,0.0336,0.0325,0.0292,0.0273,0.025,0.0223,0.0182,0.0134,0.0095,0.0074,0.0054,0.0015,0.0005,-0.0009,-0.0013,-0.0024,-0.0056,-0.0063,0.0015,0.0014,0.0014,0.0014,0,0,0.0394,0.0376,0.0377,0.0382,0.0351,0.0341,0.032,0.0294,0.0284,0.0235,0.0217,0.0154,0.0126,0.0103,0.0065,0.0025,-0.0022,0.0001,-0.0001,-0.0022,-0.0111,-0.0101,-0.0108,-0.0045,-0.0047,-0.0047,-0.0124,0,0.0412,0.0418,0.0399,0.0407,0.0409,0.0375,0.0363,0.0332,0.0298,0.0269,0.0209,0.0177,0.0137,0.0118,0.0069,0.0003,-0.004,0.0001,-0.0103,-0.0106,-0.0091,-0.0116,-0.0051,-0.0129,-0.0131,-0.0132,-0.0133,0,0.043,0.0434,0.0449,0.0447,0.0445,0.0442,0.0423,0.0405,0.035,0.0324,0.0273,0.0225,0.0158,0.0128,0.0007,0.0034,-0.0034,-0.0088,-0.0093,-0.0095,-0.011,-0.0119,-0.0146,-0.0145,-0.0144,-0.0143,-0.0142,0,0.0471,0.0471,0.0491,0.0489,0.0475,0.0477,0.0466,0.0424,0.0415,0.0359,0.0347,0.0255,0.0216,0.0114,-0.0,-0.0001,-0.013,-0.0146,-0.0202,-0.0202,-0.0196,-0.0193,-0.0231,-0.0231,-0.0231,-0.0231,-0.023,0,0.05,0.0518,0.0515,0.0526,0.0549,0.0522,0.0532,0.0506,0.0472,0.0468,0.0383,0.0358,0.0209,0.0117,0.001,-0.0114,-0.0126,-0.0202,-0.0224,-0.0185,-0.0179,-0.0201,-0.0197,-0.0234,-0.0233,-0.0232,-0.0232,0,0.054,0.0539,0.0566,0.0568,0.0571,0.0588,0.0585,0.059,0.0552,0.0544,0.0531,0.0428,0.0304,0.0157,-0.0011,-0.0091,-0.0216,-0.0256,-0.0195,-0.0212,-0.0262,-0.0255,-0.0329,-0.0329,-0.033,-0.033,-0.033,0,0.0559,0.0577,0.0605,0.0625,0.0629,0.0647,0.0662,0.0636,0.0642,0.059,0.0594,0.0474,0.0391,0.0168,0.0006,-0.0201,-0.0229,-0.0288,-0.0287,-0.0259,-0.0274,-0.0266,-0.026,-0.0331,-0.0331,-0.0331,-0.0331,0,0.0594,0.061,0.0631,0.0676,0.0705,0.0733,0.075,0.0759,0.0731,0.0705,0.0642,0.0511,0.0371,0.0179,0.0016,-0.0132,-0.0249,-0.0292,-0.0293,-0.0292,-0.0262,-0.0274,-0.0267,-0.0332,-0.0332,-0.0332,-0.0332,0,0.0622,0.0646,0.0679,0.0716,0.0762,0.0798,0.0801,0.0797,0.0792,0.0731,0.0711,0.0547,0.0442,0.0215,0.0068,-0.0082,-0.0123,-0.0162,-0.017,-0.0171,-0.0105,-0.0042,-0.0066,0,0,0,0,0,0.0639,0.0666,0.071,0.075,0.0801,0.0828,0.0851,0.0847,0.0826,0.0795,0.0748,0.0616,0.0377,0.027,0.0122,0.0056,-0.0149,-0.0122,-0.0198,-0.0338,-0.0337,-0.0286,0,0,0,0,0,0,0.0649,0.0694,0.0713,0.0775,0.0812,0.0866,0.0888,0.0874,0.0845,0.0803,0.0677,0.0598,0.0364,0.0469,0.0127,0.0079,0.0014,-0.024,-0.0243,-0.0339,-0.0338,-0.0337,-0.0284,0,0,0,0,0]}]]